STARLINK-2166, 48558

Orbit data source: Space-Track

STARLINK-2166, 48558 is a payload satellite owned by SpaceX/Seattle (US) in LEO that was launched on Sat, 15 May 2021 UTC via an FALCON 9 launch vehicle from the Air Force Eastern Test Range (AFETR). Payload-class satellites include a variety of spacecraft equipped with specific instruments for various scientific and technological missions. These include communications satellites like Starlink; space stations such as the ISS; scientific satellites like the Hubble; Earth observation satellites from companies like Planet Labs, Umbra, and HawkEye 360; GPS; miniature CubeSats for education and research; and military/defense satellites.

Loading next visibility...
Identifier
48558, 2021-041F
Orbit
LEO
Country
Flag of USUS
Related business
Manufacturer
SpaceX/Seattle
Mission
Operational Commercial Communications
Bus & Motor
STARLINK, Unknown motor
Mass
260 kg wet, ~248 kg dry
Launch date (UTC)
2021-05-15 (5 years ago)
Launch vehicle
FALCON 9
Launch site
Air Force Eastern Test Range (AFETR)
Object type
Payload
Rocket body
Debris
Shape & HBR
Box + 1 Pan, 10.1 m
Radar Cross Section
13.562 m², Large (>1 m²)

Expand to show TLE details & history
Last TLE update: 2 days ago

TLE from 2 days ago
0 STARLINK-2166
1 48558U 21041F   26171.28875925  .00000921  00000-0  41421-4 0  9999
2 48558  53.1601   9.5356 0001035  81.3402 278.7717 15.31707460280130
Epoch: 2026-06-20T06:55Z
TLE epoch observation values (Epoch: 2026-06-20T06:55:48.799Z)
Latitude
0.00002°
Longitude
-2.92324°
Altitude
471.51 km
Speed
7.632 km/s
True Right ascension
00h 38m 08s
True Declination
0° 00' 00"
Sunlit
Object was in daylight at epoch
Visualization orbit readout
Latitude
Unknown
Longitude
Unknown
Altitude
Unknown
Speed
Unknown
Apparent Right ascension
Unknown
Apparent Declination
Unknown
Sunlit
N/A
Visualization observer readout
Local Sidereal Time
21:37:02
Azimuth
Unknown
Elevation
Unknown
Doppler factor
Unknown
Orbital elements
Apogee altitude
471.683 km
Perigee altitude
470.265 km
Semi-major axis
6,849.111 km
Eccentricity
0.0001
Inclination
53.1601°
RAAN
9.5356°
Arg. of periapsis
81.3402°
True anomaly
278.75998°
Mean anomaly
278.7717°
Eccentric anomaly
278.76584°
Mean motion
3.82906 °/min
Orbital period
94.02 mins
BSTAR
0.000041421
Loading maneuver chart data...
Computing Atmospheric mass density...

Documentation

Showing up to 5 results
|